LFBZLFBY

Guest
Details From LFBZ - Biarritz-Anglet-Bayonne
To LFBY - Dax Seyresse
Flight Number -
Tags decoded
Created
Modified
Stats Distance 35 nm / 66 km
Max Altitude 0 ft / 0 m
Waypoints 4
Social Downloads 1
Likes 0
Share VATSIM

Download

Looking for another format? Having issues loading an existing format? Contact us
Advertisement - Login to hide

Notes

Requested: LFBZ LFIX 6452 LFBY

Route

LFBZ LFIX 6452 LFBY

ID Type Via Altitude Latitude Longitude Leg Dist Tot Dist Heading (true) Name
O LFBZ APT - 0 ft / 0 m 43.46843˚ -1.52332˚ - 0 nm - Biarritz-Anglet-Bayonne
LFIX APT - 0 ft / 0 m 43.33646˚ -1.42339˚ 9 nm 9 nm 151° / 151° Itxassou
6452 APT - 0 ft / 0 m 43.53811˚ -1.18262˚ 16 nm 25 nm 41° / 41° Sames
O LFBY APT - 0 ft / 0 m 43.69000˚ -1.06700˚ 10 nm 35 nm 29° / 29° Dax Seyresse

Altitude Profile

Advertisement - Login to hide

LFBZ

Details ICAO LFBZ (BIQ)
Name Biarritz-Anglet-Bayonne
Region France
Timezone Europe/Paris (UTC+2.0)
Stats Elevation 245 ft / 75 m (AMSL)
Location 43.468427° -1.523322°
Runways 1
Magnetic Variation 0.172° W

METAR

LFBZ 202000Z AUTO 27005KT 9999 BKN008 15/14 Q1014 BECMG 1500 BR OVC003

Decode

TAF

TAF LFBZ 201700Z 2018/2118 26008KT CAVOK BECMG 2019/2021 1500 BR OVC003 PROB40 2022/2106 0200 FG VV/// BECMG 2103/2105 10005KT BECMG 2106/2108 FEW040 BECMG 2112/2114 34008KT TEMPO 2110/2118 BKN040 PROB30 TEMPO 2112/2114 4000 TSRA BKN030CB

Decode

Departure Runways

ID Width Length Bearing (true) Bearing (mag) Surface Threshold Offset Overrun Length
09 148 ft / 45 m 7,388 ft / 2,252 m 89.12° 89.29° Asphalt 673 ft / 205 m 0 ft / 0 m
27 148 ft / 45 m 7,388 ft / 2,252 m 269.14° 269.31° Asphalt 0 ft / 0 m 0 ft / 0 m

LFBY

Details ICAO LFBY
Name Dax Seyresse
Region France
Timezone Europe/Paris (UTC+2.0)
Stats Elevation 108 ft / 33 m (AMSL)
Location 43.689995° -1.066997°
Runways 1
Magnetic Variation 0.052° W

METAR

LFBY 202000Z AUTO 28004KT 240V300 //// // ////// 17/11 Q1013

Decode

TAF

Not found

Destination Runways

ID Width Length Bearing (true) Bearing (mag) Surface Threshold Offset Overrun Length
08 98 ft / 30 m 2,462 ft / 751 m 74.00° 74.05° Dirt 0 ft / 0 m 0 ft / 0 m
26 98 ft / 30 m 2,462 ft / 751 m 254.00° 254.05° Dirt 0 ft / 0 m 0 ft / 0 m

Popular Alternatives